This is the latest recevied weather packets stored in our database for station/object N4AR. If no packets are shown the sender has not sent any weather packets the latest 1 day(s).
| Time | Temp. | Humidity | Pressure | Rain* | Wind** | Luminosity | Snow |
|---|---|---|---|---|---|---|---|
| 1777968510 | 16.11° C | 67% | 1014.7 hPa | 0 mm | 0.45 m/s, 83° | 0 W/m² | - |
| 1777968206 | 16.11° C | 66% | 1014.7 hPa | 0 mm | 0.45 m/s, 78° | 0 W/m² | - |
| 1777967901 | 16.11° C | 67% | 1014.5 hPa | 0 mm | 0.45 m/s, 75° | 0 W/m² | - |
| 1777967599 | 16.11° C | 66% | 1014.6 hPa | 0 mm | 0.89 m/s, 84° | 0 W/m² | - |
| 1777967296 | 16.11° C | 65% | 1014.6 hPa | 0 mm | 0 m/s | 0 W/m² | - |
| 1777966993 | 16.11° C | 66% | 1014.7 hPa | 0 mm | 0.45 m/s, 34° | 0 W/m² | - |
| 1777966690 | 16.67° C | 66% | 1014.4 hPa | 0 mm | 0.45 m/s, 90° | 0 W/m² | - |
| 1777966388 | 16.67° C | 65% | 1014.6 hPa | 0 mm | 0.89 m/s, 98° | 0 W/m² | - |
| 1777966085 | 16.67° C | 65% | 1014.7 hPa | 0 mm | 0.89 m/s, 56° | 0 W/m² | - |
| 1777965781 | 16.67° C | 65% | 1014.5 hPa | 0 mm | 0.45 m/s, 91° | 0 W/m² | - |
| 1777965477 | 16.67° C | 65% | 1014.4 hPa | 0 mm | 0.45 m/s, 52° | 0 W/m² | - |
| 1777965174 | 16.67° C | 64% | 1014.5 hPa | 0 mm | 0.45 m/s, 92° | 0 W/m² | - |
| 1777964871 | 16.67° C | 64% | 1014.4 hPa | 0 mm | 0.45 m/s, 39° | 0 W/m² | - |
| 1777964568 | 16.67° C | 64% | 1014.4 hPa | 0 mm | 0.89 m/s, 61° | 0 W/m² | - |
| 1777964263 | 16.67° C | 63% | 1014.4 hPa | 0 mm | 0 m/s | 0 W/m² | - |
| 1777963960 | 16.67° C | 63% | 1014.4 hPa | 0 mm | 0.45 m/s, 99° | 0 W/m² | - |
| 1777963657 | 16.67° C | 63% | 1014.3 hPa | 0 mm | 0.45 m/s, 169° | 0 W/m² | - |
| 1777963355 | 16.67° C | 63% | 1014.4 hPa | 0 mm | 0.45 m/s, 80° | 0 W/m² | - |
| 1777963052 | 17.22° C | 63% | 1014.4 hPa | 0 mm | 0.45 m/s, 75° | 0 W/m² | - |
| 1777962748 | 17.22° C | 63% | 1014.6 hPa | 0 mm | 0.89 m/s, 105° | 0 W/m² | - |
| 1777962445 | 17.22° C | 63% | 1014.4 hPa | 0 mm | 0.89 m/s, 63° | 0 W/m² | - |
| 1777962143 | 17.22° C | 63% | 1014.4 hPa | 0 mm | 0.89 m/s, 44° | 0 W/m² | - |
| 1777961839 | 17.22° C | 62% | 1014.4 hPa | 0 mm | 0.45 m/s, 76° | 0 W/m² | - |
| 1777961537 | 17.22° C | 62% | 1014.5 hPa | 0 mm | 0.45 m/s, 117° | 0 W/m² | - |
| 1777961234 | 17.22° C | 62% | 1014.5 hPa | 0 mm | 0.45 m/s, 182° | 0 W/m² | - |
* Rain latest hour (hover to see other rain measurements)
** Current wind speed in m/s (hover to see current wind gust speed)